Regional Weather Roundup
Issued by NWS

Home | Current Version | Previous Version | Graphics & Text | Print | Product List | Glossary On
Versions: 1 2 3 4 5 6 7 8 9 10 11 12 13 14 15 16 17 18 19 20 21 22 23 24 25 26 27
000
ASUS43 KDMX 160207
RWRIA

WEATHER ROUNDUP FOR IOWA
NATIONAL WEATHER SERVICE DES MOINES IA
900 PM CDT TUE APR 15 2014

NOTE: "FAIR" INDICATES FEW OR NO CLOUDS BELOW 12,000 FEET WITH NO
SIGNIFICANT WEATHER AND/OR OBSTRUCTIONS TO VISIBILITY.

* - THESE STATIONS ARE NOT NWS STATIONS...THUS NOT UNDER NWS
QUALITY CONTROL.  THEY ALSO DO NOT REPORT WEATHER SUCH
AS PRECIPITATION OR FOG.

IAZ001>003-012>014-020>022-031>034-043>046-160300-
   NORTHWEST IOWA

CITY           SKY/WX    TMP DP  RH WIND       PRES   REMARKS
CARROLL *      CLOUDY    39  28  65 SE13      29.94S WCI  32
CHEROKEE *     PTCLDY    39  27  60 SE7       29.89S WCI  34
DENISON *      CLEAR     43  27  52 SE14      29.89S
LE MARS *      CLEAR     41  27  56 SE10      29.84S
ORANGE CITY *  CLEAR     39  25  56 SE12      29.85S WCI  32
SHELDON *      CLEAR     39  25  56 SE16G22   29.86F WCI  30
SIOUX CITY     CLEAR     43  28  55 SE14      29.83F
SPENCER        MOCLDY    39  27  62 SE14      29.92F WCI  31
STORM LAKE *   MOCLDY    39  28  65 SE13      29.91S WCI  32
$$

IAZ055>058-069>071-079>083-090>094-160300-
   SOUTHWEST IOWA

CITY           SKY/WX    TMP DP  RH WIND       PRES   REMARKS
ATLANTIC *     CLOUDY    45  28  53 SE12G17   29.93S
AUDUBON *      CLEAR     39  25  56 S6        29.95R WCI  35
CLARINDA *     PTCLDY    46  30  53 SE12G17   29.97S
COUNCIL BLFS * CLOUDY    45  32  61 SE16G22   29.88R
CRESTON *      CLEAR     39  28  65 SE10      29.98S WCI  32
HARLAN  *      CLEAR     43  28  56 SE12      29.95R
LAMONI         PTCLDY    43  25  49 SE9       30.02S
RED OAK *      MOCLDY    46  30  53 SE12      29.93S
SHENANDOAH *   PTCLDY    48  30  49 SE16G22   29.94S
$$

IAZ047>049-059>061-072>074-084-160300-
   CENTRAL IOWA

CITY           SKY/WX    TMP DP  RH WIND       PRES   REMARKS
AMES           CLEAR     38  24  57 SE9       30.02F WCI  31
ANKENY *       PTCLDY    39  25  56 SE8       30.03S WCI  34
CHARITON *     PTCLDY    41  27  56 SE9       30.05R
DES MOINES     PTCLDY    43  21  41 SE9       30.03S
GRINNELL*      CLEAR     36  25  64 E7        30.07R WCI  30
KNOXVILLE *    PTCLDY    41  21  45 SE7       30.05R
MARSHALLTOWN   CLEAR     33  25  72 E8        30.06R WCI  26
NEWTON *         N/A     37  23  56 SE9       30.07R WCI  31
PELLA *        CLEAR     37  23  56 SE6       30.08R WCI  33
PERRY *          N/A     41  27  56 SE10      29.99S
$$

IAZ004>006-015-016-023>025-035-036-160300-
   NORTH CENTRAL IOWA

CITY           SKY/WX    TMP DP  RH WIND       PRES   REMARKS
ALGONA *       CLOUDY    36  25  64 SE13      29.99S WCI  27
CLARION *      CLOUDY    36  25  64 E12       30.02S WCI  27
ESTHERVILLE    MOCLDY    35  26  69 E13       29.95F WCI  26
FORT DODGE *   MOCLDY    37  25  60 SE12      29.99S WCI  30
MASON CITY     MOCLDY    32  23  69 SE8       30.06R WCI  25
FOREST CITY *  CLOUDY    34  25  69 E8        30.03S WCI  27
IOWA FALLS *     N/A     32  27  80 E8        30.06R WCI  25
$$

IAZ007>011-017>019-026>030-037>042-050>054-066-160300-
   NORTHEAST IOWA

CITY           SKY/WX    TMP DP  RH WIND       PRES   REMARKS
CEDAR RAPIDS   CLEAR     33  17  51 SE6       30.10R WCI  28
CHARLES CITY * CLOUDY    32  19  59 SE6       30.10R WCI  26
CLINTON *      CLEAR     32  18  55 CALM      30.18R
DECORAH *      CLOUDY    32  18  55 CALM      30.10R
DUBUQUE        CLEAR     30  20  66 SE3       30.12R
MONTICELLO *   CLEAR     32  21  64 CALM      30.13R
OELWEIN *      CLOUDY   N/A N/A N/A SE5       30.11R
WATERLOO       CLEAR     34  16  47 SE3       30.09R
$$

IAZ064-065-067-068-078-160300-
   EAST CENTRAL IOWA

CITY           SKY/WX    TMP DP  RH WIND       PRES   REMARKS
DAVENPORT      CLEAR     33  14  45 CALM      30.15R
IOWA CITY      CLEAR     34  19  54 SE5       30.14R WCI  30
MT. PLEASANT * CLEAR     37  23  56 SE6       30.13R WCI  33
MUSCATINE *    CLEAR     32  23  69 CALM      30.15R
QUAD CITIES    CLEAR     31  20  63 S3        30.15R
$$

IAZ062-063-075>077-085>089-095>099-160300-
   SOUTHEAST IOWA

CITY           SKY/WX    TMP DP  RH WIND       PRES   REMARKS
BURLINGTON     CLEAR     38  22  52 SE5       30.13R WCI  34
FAIRFIELD *    CLEAR     36  21  55 SE7       30.11S WCI  30
FORT MADISON * CLEAR     39  21  48 SE5       30.14R
KEOKUK *       CLEAR     39  23  52 SE6       30.13R WCI  35
OSKALOOSA *      N/A     37  27  65 SE6       30.09R WCI  33
CENTERVILLE *  CLEAR     37  25  60 SE7       30.09R WCI  32
OTTUMWA        CLEAR     34  20  56 SE8       30.08S WCI  27
WASHINGTON *   CLEAR     32  23  69 E8        30.12R WCI  25
$$

ABBREVIATIONS USED IN REMARKS
   TC - TEMPERATURES IN CELSIUS
  WCI - WIND CHILL INDEX
   HX - HEAT INDEX
  VSB - VISIBILITY
$$




USA.gov is the U.S. government's official web portal to all federal, state and local government web resources and services.